Tracking 25620 objects as of 18-May-2022
HD Live streaming from Space Station
objects crossing your sky now

STARLINK-3362

Track STARLINK-3362 now!
10-day predictions
STARLINK-3362 is classified as:


NORAD ID: 51108
Int'l Code: 2022-005E
Perigee: 540.4 km
Apogee: 543.0 km
Inclination: 53.2 °
Period: 95.3 minutes
Semi major axis: 6912 km
RCS: Unknown
Launch date: January 19, 2022
Source: United States (US)
Launch site: AIR FORCE EASTERN TEST RANGE (AFETR)
aabbcc
Your satellite tracking list
Your tracking list is empty




NASA's NSSDC Master Catalog

Two Line Element Set (TLE):
1 51108U 22005E   22137.83334491 -.00648607  00000-0 -41477-1 0  9991
2 51108  53.2177  57.4068 0001847  43.0005  93.8988 15.10538882 19864
Source of the keplerian elements: AFSPC